DUMME EDQM-EDUY

Flight info

Callsign DUMME
Flight time N/A
Altitude 5000
Route PEROX1S PEROX Z715 ABKIS Q240 DRN
Aircraft C172/L-SFG/C

Departure

Time 2026-04-27 11:20
Airport Hof-Plauen Airport (EDQM)

Arrival

Time N/A
Airport Welzow-Sedlitzer See Seaplane Base (EDUY)
Time Latitude Longitude Altitude Speed Heading
2026-04-27 11:13 50.28796 11.86585 1892 ft 0 kts 83°
2026-04-27 11:17 50.28788 11.86593 1899 ft 6 kts 204°
2026-04-27 11:17 50.28845 11.86474 1895 ft 16 kts 272°
2026-04-27 11:18 50.28838 11.86263 1903 ft 28 kts 267°
2026-04-27 11:18 50.28828 11.85995 1913 ft 22 kts 270°
2026-04-27 11:18 50.28821 11.85769 1923 ft 20 kts 266°
2026-04-27 11:18 50.28812 11.85552 1931 ft 20 kts 267°
2026-04-27 11:19 50.28838 11.85390 1939 ft 13 kts 355°
2026-04-27 11:19 50.28870 11.85577 1933 ft 41 kts 88°
2026-04-27 11:19 50.28892 11.86236 1943 ft 70 kts 85°
2026-04-27 11:19 50.28901 11.86975 2099 ft 69 kts 84°
2026-04-27 11:20 50.28916 11.87689 2268 ft 64 kts 79°
2026-04-27 11:20 50.28947 11.88375 2390 ft 61 kts 75°
2026-04-27 11:20 50.28984 11.89062 2466 ft 71 kts 84°
2026-04-27 11:20 50.29016 11.89862 2571 ft 79 kts 84°
2026-04-27 11:21 50.29053 11.90826 2630 ft 95 kts 85°
2026-04-27 11:21 50.29098 11.91846 2805 ft 94 kts 82°
2026-04-27 11:21 50.29327 11.92787 2998 ft 92 kts 70°
2026-04-27 11:21 50.29525 11.93720 3176 ft 91 kts 69°
2026-04-27 11:22 50.29727 11.94638 3317 ft 93 kts 70°
2026-04-27 11:22 50.29937 11.95594 3492 ft 94 kts 71°
2026-04-27 11:22 50.30147 11.96556 3664 ft 94 kts 70°
2026-04-27 11:22 50.30358 11.97520 3852 ft 94 kts 70°
2026-04-27 11:23 50.30568 11.98493 4010 ft 94 kts 70°
2026-04-27 11:23 50.30779 11.99464 4173 ft 95 kts 71°
2026-04-27 11:23 50.30995 12.00453 4309 ft 97 kts 71°
2026-04-27 11:23 50.31213 12.01465 4431 ft 99 kts 71°
2026-04-27 11:24 50.31437 12.02495 4572 ft 101 kts 71°
2026-04-27 11:24 50.31662 12.03535 4703 ft 101 kts 71°
2026-04-27 11:24 50.31888 12.04581 4835 ft 102 kts 71°
2026-04-27 11:24 50.32115 12.05630 4965 ft 102 kts 72°
2026-04-27 11:25 50.32346 12.06698 5039 ft 107 kts 71°
2026-04-27 11:25 50.32586 12.07808 5129 ft 108 kts 71°
2026-04-27 11:25 50.32827 12.08922 5230 ft 108 kts 71°
2026-04-27 11:25 50.33066 12.10036 5325 ft 108 kts 71°
2026-04-27 11:26 50.33288 12.11148 5422 ft 108 kts 78°
2026-04-27 11:26 50.33437 12.12305 5512 ft 109 kts 77°
2026-04-27 11:26 50.33597 12.13467 5604 ft 109 kts 77°
2026-04-27 11:26 50.33756 12.14631 5688 ft 110 kts 77°
2026-04-27 11:27 50.33915 12.15798 5776 ft 110 kts 77°
2026-04-27 11:27 50.34074 12.16966 5859 ft 110 kts 77°
2026-04-27 11:27 50.34232 12.18137 5936 ft 111 kts 77°
2026-04-27 11:27 50.34393 12.19328 5991 ft 113 kts 78°
2026-04-27 11:28 50.34703 12.20438 6033 ft 113 kts 49°
2026-04-27 11:28 50.35191 12.21407 6088 ft 114 kts 52°
2026-04-27 11:28 50.35674 12.22388 6141 ft 114 kts 52°
2026-04-27 11:28 50.36156 12.23368 6191 ft 113 kts 52°
2026-04-27 11:29 50.36637 12.24345 6235 ft 113 kts 52°
2026-04-27 11:29 50.37119 12.25326 6298 ft 114 kts 51°
2026-04-27 11:29 50.37603 12.26313 6350 ft 114 kts 52°
2026-04-27 11:29 50.38086 12.27298 6402 ft 114 kts 51°
2026-04-27 11:30 50.38568 12.28280 6445 ft 113 kts 51°
2026-04-27 11:30 50.39048 12.29258 6497 ft 113 kts 51°
2026-04-27 11:30 50.39528 12.30237 6548 ft 113 kts 51°
2026-04-27 11:30 50.40006 12.31212 6599 ft 113 kts 52°
2026-04-27 11:31 50.40477 12.32173 6650 ft 113 kts 52°
2026-04-27 11:31 50.40955 12.33148 6704 ft 113 kts 52°
2026-04-27 11:31 50.41432 12.34123 6753 ft 112 kts 51°
2026-04-27 11:31 50.41909 12.35096 6801 ft 113 kts 52°
2026-04-27 11:32 50.42386 12.36072 6852 ft 113 kts 52°
2026-04-27 11:32 50.42865 12.37050 6900 ft 113 kts 51°
2026-04-27 11:32 50.43346 12.38032 6928 ft 115 kts 51°
2026-04-27 11:32 50.43837 12.39039 6935 ft 117 kts 51°
2026-04-27 11:33 50.44335 12.40059 6934 ft 118 kts 52°
2026-04-27 11:33 50.44835 12.41084 6934 ft 119 kts 52°
2026-04-27 11:33 50.45339 12.42115 6934 ft 119 kts 52°
2026-04-27 11:33 50.45837 12.43137 6938 ft 120 kts 51°
2026-04-27 11:34 50.46344 12.44176 6939 ft 120 kts 50°
2026-04-27 11:34 50.46853 12.45219 6937 ft 120 kts 51°
2026-04-27 11:34 50.47361 12.46261 6937 ft 120 kts 51°
2026-04-27 11:34 50.47871 12.47308 6937 ft 121 kts 51°
2026-04-27 11:35 50.48380 12.48355 6942 ft 120 kts 51°
2026-04-27 11:35 50.48889 12.49398 6941 ft 120 kts 51°
2026-04-27 11:35 50.49396 12.50439 6942 ft 120 kts 50°
2026-04-27 11:35 50.49902 12.51481 6939 ft 121 kts 50°
2026-04-27 11:36 50.50423 12.52552 6883 ft 125 kts 52°
2026-04-27 11:36 50.50952 12.53642 6838 ft 126 kts 51°
2026-04-27 11:36 50.51486 12.54741 6789 ft 127 kts 51°
2026-04-27 11:36 50.52020 12.55840 6741 ft 127 kts 51°
2026-04-27 11:37 50.52554 12.56940 6694 ft 127 kts 52°
2026-04-27 11:37 50.53088 12.58041 6643 ft 127 kts 52°
2026-04-27 11:37 50.53618 12.59133 6593 ft 127 kts 52°
2026-04-27 11:37 50.54160 12.60231 6538 ft 127 kts 46°
2026-04-27 11:38 50.54958 12.60717 6474 ft 126 kts
2026-04-27 11:38 50.55830 12.60837 6422 ft 126 kts
2026-04-27 11:38 50.56705 12.60938 6376 ft 126 kts
2026-04-27 11:38 50.57583 12.61039 6319 ft 127 kts
2026-04-27 11:39 50.58464 12.61140 6271 ft 127 kts
2026-04-27 11:39 50.59345 12.61240 6218 ft 127 kts
2026-04-27 11:39 50.60226 12.61340 6167 ft 127 kts
2026-04-27 11:39 50.61105 12.61439 6114 ft 127 kts
2026-04-27 11:40 50.61987 12.61537 6057 ft 127 kts
2026-04-27 11:40 50.62868 12.61636 6007 ft 127 kts
2026-04-27 11:40 50.63753 12.61710 5954 ft 128 kts 356°
2026-04-27 11:40 50.64616 12.61383 5902 ft 128 kts 345°
2026-04-27 11:41 50.65470 12.60997 5859 ft 128 kts 344°
2026-04-27 11:41 50.66327 12.60615 5803 ft 128 kts 345°
2026-04-27 11:41 50.67187 12.60236 5758 ft 129 kts 345°
2026-04-27 11:41 50.68049 12.59854 5709 ft 129 kts 345°
2026-04-27 11:42 50.68914 12.59470 5662 ft 129 kts 345°
2026-04-27 11:42 50.69781 12.59085 5611 ft 129 kts 345°
2026-04-27 11:42 50.70649 12.58702 5561 ft 130 kts 345°
2026-04-27 11:42 50.71518 12.58319 5510 ft 130 kts 345°
2026-04-27 11:43 50.72398 12.58284 5465 ft 129 kts 27°
2026-04-27 11:43 50.72930 12.59405 5217 ft 138 kts 78°
2026-04-27 11:43 50.73080 12.60896 5043 ft 137 kts 84°
2026-04-27 11:43 50.73193 12.62388 4863 ft 137 kts 84°
2026-04-27 11:44 50.73300 12.63872 4686 ft 136 kts 84°
2026-04-27 11:44 50.73401 12.65348 4520 ft 134 kts 85°
2026-04-27 11:44 50.73493 12.66790 4209 ft 133 kts 84°
2026-04-27 11:44 50.73574 12.68225 3910 ft 131 kts 84°
2026-04-27 11:45 50.73560 12.69671 3583 ft 133 kts 94°
2026-04-27 11:45 50.73499 12.70650 3378 ft 132 kts 95°
2026-04-27 11:45 50.73361 12.72564 2958 ft 132 kts 94°
2026-04-27 11:45 50.73259 12.73987 2708 ft 127 kts 96°
2026-04-27 11:46 50.73161 12.75324 2720 ft 121 kts 91°
2026-04-27 11:46 50.73229 12.76633 2623 ft 118 kts 80°
2026-04-27 11:46 50.73369 12.77923 2410 ft 120 kts 79°
2026-04-27 11:46 50.73499 12.79163 2142 ft 109 kts 78°
2026-04-27 11:47 50.73707 12.80218 1911 ft 94 kts 67°
2026-04-27 11:47 50.73932 12.81093 1744 ft 78 kts 63°
2026-04-27 11:47 50.74148 12.81822 1563 ft 67 kts 61°
2026-04-27 11:47 50.74358 12.82474 1389 ft 67 kts 62°
2026-04-27 11:48 50.74563 12.83140 1245 ft 66 kts 62°
2026-04-27 11:48 50.74728 12.83688 1226 ft 43 kts 65°
2026-04-27 11:48 50.74833 12.84042 1222 ft 30 kts 61°
2026-04-27 11:48 50.74901 12.84270 1219 ft 14 kts 65°
2026-04-27 11:49 50.74939 12.84283 1217 ft 9 kts 338°
2026-04-27 11:49 50.74983 12.84236 1218 ft 8 kts 268°
2026-04-27 11:49 50.74936 12.84071 1216 ft 28 kts 245°
2026-04-27 11:49 50.74863 12.83822 1219 ft 22 kts 244°
2026-04-27 11:50 50.74782 12.83546 1223 ft 27 kts 244°
2026-04-27 11:50 50.74798 12.83427 1221 ft 13 kts 333°
2026-04-27 11:50 50.74795 12.83322 1220 ft 7 kts 296°
2026-04-27 11:50 50.74799 12.83311 1220 ft 0 kts 296°